Weather History for Rickenbacker, OH

Change the Weather History Date:

Sunday, March 23, 2014

  Actual Average Record
Temperature  
Mean Temperature 33 °F -  
Max Temperature 39 °F 53 °F 78 °F (2012)
Min Temperature 27 °F 34 °F 19 °F (2004)
Degree Days  
Heating Degree Days 32    
Moisture  
Dew Point 13 °F    
Average Humidity 43    
Maximum Humidity 63    
Minimum Humidity 23    
Precipitation  
Precipitation 0.00 in - - ()
Sea Level Pressure  
Sea Level Pressure 30.24 in    
Wind  
Wind Speed 10 mph (NNW)    
Max Wind Speed 17 mph    
Max Gust Speed 24 mph    
Visibility 10 miles    
Events      
Averages and records for this station are not official NWS values.
T = Trace of Precipitation, MM = Missing Value Source: NWS Daily Summary

Daily Weather History Graph

Daily Weather History Graph

Search for Another Location

Airport:

Trip Planner

Search our weather history database for the weather conditions in past years. The results will help you decide how hot, cold, wet, or windy it might be!

Date:

Astronomy

Mar. 23, 2014 Rise Set
Actual Time 7:30 AM EDT 7:46 PM EDT
Civil Twilight 7:03 AM EDT 8:13 PM EDT
Nautical Twilight 6:31 AM EDT 8:45 PM EDT
Astronomical Twilight 5:59 AM EDT 9:17 PM EDT
Moon 2:02 AM EDT (3/23) 12:10 PM EDT (3/23)
Length of Visible Light 13h 10m
Length of Day
12h 16m
Waning Gibbous, 55% of the Moon is Illuminated
Mar 23
Waning Gibbous
Mar 23
Last Quarter
Mar 30
New
Apr 7
First Quarter
Apr 15
Full

Hourly Weather History & Observations

Time (EDT) Temp. Windchill Dew Point Humidity Pressure Visibility Wind Dir Wind Speed Gust Speed Precip Events Conditions
12:15 AM 39.2 °F 35.9 °F 23.9 °F 54% 30.17 in 10.0 mi NNW 4.6 mph - N/A   Clear
12:35 AM 39.2 °F 35.9 °F 24.6 °F 56% 30.16 in 10.0 mi NNW 4.6 mph - N/A   Clear
12:55 AM 38.7 °F 35.2 °F 25.2 °F 58% 30.17 in 10.0 mi NW 4.6 mph - N/A   Scattered Clouds
1:15 AM 38.7 °F 35.2 °F 25.7 °F 60% 30.17 in 10.0 mi NW 4.6 mph - N/A   Scattered Clouds
1:35 AM 38.5 °F 33.4 °F 26.1 °F 61% 30.18 in 10.0 mi NNW 6.9 mph - N/A   Scattered Clouds
1:55 AM 38.8 °F 34.6 °F 25.5 °F 59% 30.17 in 10.0 mi North 5.8 mph - N/A   Scattered Clouds
2:15 AM 39.0 °F 33.4 °F 24.8 °F 57% 30.17 in 10.0 mi North 8.1 mph - N/A   Scattered Clouds
2:35 AM 38.8 °F 33.2 °F 24.4 °F 56% 30.17 in 10.0 mi North 8.1 mph - N/A   Scattered Clouds
2:55 AM 38.8 °F 32.1 °F 24.1 °F 55% 30.17 in 10.0 mi North 10.4 mph - N/A   Scattered Clouds
3:15 AM 38.7 °F 31.4 °F 22.8 °F 53% 30.16 in 10.0 mi North 11.5 mph - N/A   Mostly Cloudy
3:35 AM 38.5 °F 31.1 °F 22.6 °F 53% 30.16 in 10.0 mi NNW 11.5 mph - N/A   Overcast
3:55 AM 37.9 °F 30.5 °F 23.7 °F 57% 30.16 in 10.0 mi NNW 11.5 mph - N/A   Scattered Clouds
4:15 AM 37.4 °F 30.3 °F 24.1 °F 59% 30.16 in 10.0 mi North 10.4 mph 16.1 mph N/A   Scattered Clouds
4:35 AM 37.2 °F 29.6 °F 24.4 °F 60% 30.16 in 10.0 mi NNW 11.5 mph - N/A   Mostly Cloudy
4:55 AM 36.9 °F 29.1 °F 24.6 °F 61% 30.17 in 10.0 mi North 11.5 mph - N/A   Mostly Cloudy
5:15 AM 36.7 °F 29.9 °F 25.0 °F 63% 30.17 in 10.0 mi NNW 9.2 mph - N/A   Overcast
5:35 AM 36.3 °F 27.1 °F 25.0 °F 63% 30.19 in 10.0 mi NNW 15.0 mph 20.7 mph N/A   Overcast
5:55 AM 35.4 °F 26.8 °F 21.9 °F 58% 30.19 in 10.0 mi NNW 12.7 mph 16.1 mph N/A   Overcast
6:15 AM 34.9 °F 26.6 °F 21.0 °F 57% 30.19 in 10.0 mi NNW 11.5 mph - N/A   Overcast
6:35 AM 34.3 °F 24.6 °F 22.1 °F 61% 30.19 in 10.0 mi NNW 15.0 mph - N/A   Overcast
6:55 AM 34.3 °F 26.5 °F 22.6 °F 62% 30.20 in 10.0 mi North 10.4 mph - N/A   Overcast
7:15 AM 34.0 °F 24.6 °F 21.6 °F 60% 30.21 in 10.0 mi NNW 13.8 mph - N/A   Overcast
7:35 AM 33.1 °F 23.9 °F 18.9 °F 56% 30.22 in 10.0 mi North 12.7 mph 19.6 mph N/A   Scattered Clouds
7:55 AM 32.5 °F 23.7 °F 19.4 °F 58% 30.23 in 10.0 mi North 11.5 mph - N/A   Scattered Clouds
8:10 AM 32.7 °F 23.9 °F 20.7 °F 61% 30.23 in 10.0 mi North 11.5 mph - N/A   Mostly Cloudy
8:35 AM 32.5 °F 22.7 °F 20.8 °F 62% 30.23 in 10.0 mi North 13.8 mph 18.4 mph N/A   Overcast
8:55 AM 32.2 °F 21.1 °F 20.5 °F 62% 30.23 in 10.0 mi NNE 17.3 mph - N/A   Overcast
9:15 AM 32.0 °F 23.0 °F 19.2 °F 59% 30.24 in 10.0 mi NNW 11.5 mph - N/A   Overcast
9:35 AM 32.2 °F 21.8 °F 18.5 °F 57% 30.25 in 10.0 mi NNW 15.0 mph 18.4 mph N/A   Overcast
9:55 AM 31.6 °F 22.1 °F 18.0 °F 57% 30.26 in 10.0 mi North 12.7 mph - N/A   Overcast
10:15 AM 31.6 °F 21.2 °F 16.7 °F 54% 30.26 in 10.0 mi North 15.0 mph 19.6 mph N/A   Overcast
10:35 AM 32.0 °F 20.8 °F 13.8 °F 47% 30.27 in 10.0 mi NNW 17.3 mph 20.7 mph N/A   Mostly Cloudy
10:55 AM 32.2 °F 23.2 °F 6.8 °F 34% 30.27 in 10.0 mi North 11.5 mph - N/A   Scattered Clouds
11:15 AM 32.7 °F 23.4 °F 6.6 °F 33% 30.27 in 10.0 mi North 12.7 mph 19.6 mph N/A   Clear
11:35 AM 33.1 °F 24.4 °F 8.2 °F 35% 30.28 in 10.0 mi North 11.5 mph 19.6 mph N/A   Clear
11:55 AM 32.9 °F 22.4 °F 7.5 °F 35% 30.28 in 10.0 mi NNW 16.1 mph 19.6 mph N/A   Clear
12:15 PM 33.1 °F 24.9 °F 4.6 °F 30% 30.28 in 10.0 mi NW 10.4 mph 21.9 mph N/A   Clear
12:35 PM 33.8 °F 24.8 °F 5.7 °F 31% 30.27 in 10.0 mi North 12.7 mph 19.6 mph N/A   Clear
12:55 PM 34.2 °F 24.4 °F 4.6 °F 29% 30.26 in 10.0 mi North 15.0 mph - N/A   Clear
1:15 PM 35.2 °F 26.6 °F 4.6 °F 28% 30.26 in 10.0 mi North 12.7 mph 18.4 mph N/A   Clear
1:35 PM 35.8 °F 27.3 °F 4.1 °F 27% 30.26 in 10.0 mi NNW 12.7 mph 20.7 mph N/A   Scattered Clouds
1:55 PM 36.3 °F 28.9 °F 3.4 °F 25% 30.26 in 10.0 mi NNW 10.4 mph 21.9 mph N/A   Mostly Cloudy
2:15 PM 36.3 °F 26.8 °F 2.3 °F 24% 30.25 in 10.0 mi NW 16.1 mph 21.9 mph N/A   Mostly Cloudy
2:35 PM 36.0 °F 28.0 °F 1.4 °F 23% 30.26 in 10.0 mi North 11.5 mph 24.2 mph N/A   Overcast
2:55 PM 36.0 °F 27.5 °F 3.6 °F 26% 30.25 in 10.0 mi NNW 12.7 mph 24.2 mph N/A   Overcast
3:15 PM 35.6 °F 25.5 °F 3.6 °F 26% 30.25 in 10.0 mi NNW 17.3 mph 21.9 mph N/A   Overcast
3:35 PM 35.4 °F 26.0 °F 2.7 °F 25% 30.25 in 10.0 mi NW 15.0 mph 19.6 mph N/A   Scattered Clouds
3:55 PM 36.5 °F 27.0 °F 3.9 °F 26% 30.24 in 10.0 mi NNW 16.1 mph 21.9 mph N/A   Clear
4:15 PM 36.5 °F 27.0 °F 2.8 °F 24% 30.24 in 10.0 mi NNW 16.1 mph 24.2 mph N/A   Clear
4:35 PM 36.1 °F 27.7 °F 3.6 °F 26% 30.25 in 10.0 mi NNW 12.7 mph 17.3 mph N/A   Clear
4:55 PM 36.1 °F 28.7 °F 2.7 °F 24% 30.25 in 10.0 mi NNW 10.4 mph 17.3 mph N/A   Scattered Clouds
5:15 PM 36.3 °F 28.0 °F 2.8 °F 25% 30.25 in 10.0 mi NW 12.7 mph - N/A   Clear
5:35 PM 35.4 °F 26.8 °F 3.2 °F 26% 30.25 in 10.0 mi NNW 12.7 mph 18.4 mph N/A   Clear
5:55 PM 35.4 °F 26.8 °F 3.0 °F 26% 30.26 in 10.0 mi NW 12.7 mph 17.3 mph N/A   Scattered Clouds
6:15 PM 35.1 °F 25.5 °F 3.9 °F 27% 30.26 in 10.0 mi NW 15.0 mph - N/A   Scattered Clouds
6:35 PM 33.8 °F 24.8 °F 4.3 °F 29% 30.27 in 10.0 mi NW 12.7 mph 17.3 mph N/A   Scattered Clouds
6:55 PM 33.6 °F 25.0 °F 4.6 °F 30% 30.27 in 10.0 mi NW 11.5 mph - N/A   Scattered Clouds
7:15 PM 32.9 °F 23.7 °F 4.3 °F 30% 30.28 in 10.0 mi NNW 12.7 mph - N/A   Mostly Cloudy
7:35 PM 32.0 °F 22.5 °F 5.2 °F 32% 30.28 in 10.0 mi NNW 12.7 mph 18.4 mph N/A   Scattered Clouds
7:55 PM 31.1 °F 22.4 °F 5.7 °F 34% 30.29 in 10.0 mi North 10.4 mph - N/A   Clear
8:15 PM 30.7 °F 22.0 °F 6.1 °F 35% 30.29 in 10.0 mi NNW 10.4 mph - N/A   Scattered Clouds
8:35 PM 30.4 °F 21.5 °F 6.3 °F 36% 30.29 in 10.0 mi NNW 10.4 mph - N/A   Mostly Cloudy
8:55 PM 30.0 °F 21.1 °F 6.4 °F 37% 30.31 in 10.0 mi NNW 10.4 mph - N/A   Scattered Clouds
9:15 PM 30.2 °F 21.9 °F 6.4 °F 37% 30.31 in 10.0 mi NNW 9.2 mph - N/A   Overcast
9:35 PM 29.8 °F 23.9 °F 7.0 °F 38% 30.32 in 10.0 mi NNW 5.8 mph - N/A   Overcast
9:55 PM 29.5 °F 22.5 °F 7.5 °F 40% 30.32 in 10.0 mi NNW 6.9 mph - N/A   Overcast
10:15 PM 29.5 °F 22.5 °F 7.3 °F 39% 30.32 in 10.0 mi NNW 6.9 mph - N/A   Overcast
10:35 PM 28.6 °F 23.5 °F 7.7 °F 41% 30.32 in 10.0 mi NNW 4.6 mph - N/A   Scattered Clouds
10:55 PM 28.0 °F 21.7 °F 8.2 °F 43% 30.32 in 10.0 mi North 5.8 mph - N/A   Clear
11:15 PM 27.7 °F 19.6 °F 8.4 °F 44% 30.32 in 10.0 mi North 8.1 mph - N/A   Clear
11:35 PM 27.7 °F 21.3 °F 8.4 °F 44% 30.32 in 10.0 mi North 5.8 mph - N/A   Clear
11:55 PM 27.1 °F 20.7 °F 8.4 °F 45% 30.33 in 10.0 mi NNW 5.8 mph - N/A   Clear